Waarnemingen

Advertentie
Mijn weer
Salon, Frankrijk (7648): temperatuur & dauwpunt: 10.06.2019 17:00:00 - 16.06.2019 17:00:00 (CEST)Salon, Frankrijk (7648): temperatuur 5cm: 10.06.2019 17:00:00 - 16.06.2019 17:00:00 (CEST)Salon, Frankrijk (7648): windsnelheid & windstoten: 10.06.2019 17:00:00 - 16.06.2019 17:00:00 (CEST)Salon, Frankrijk (7648): windrichting: 10.06.2019 17:00:00 - 16.06.2019 17:00:00 (CEST)Salon, Frankrijk (7648): luchtdruk: 10.06.2019 17:00:00 - 16.06.2019 17:00:00 (CEST)Salon, Frankrijk (7648): zicht: 10.06.2019 17:00:00 - 16.06.2019 17:00:00 (CEST)Salon, Frankrijk (7648): neerslag: 10.06.2019 17:00:00 - 16.06.2019 17:00:00 (CEST)
Datum & Tijd tt [°C] td [°C] tt 5cm [°C] ff [km/u] ff [kn] fx [km/u] fx [kn] dd ppp [hPa] vv [km] rr [mm]
16.06.2019 17:00:00 - - - - - - - - - - -
16.06.2019 16:00:00 27,5 12,3 32,5 27 14 44 24 NW 1014,9 34 0,0
16.06.2019 15:00:00 26,9 12,5 32,0 24 13 42 23 NW 1015,5 38 0,0
16.06.2019 14:00:00 26,2 12,3 30,6 25 14 42 23 NW 1016,0 37 0,0
16.06.2019 13:00:00 25,6 12,8 28,9 23 12 48 26 NNW 1016,5 34 0,0
16.06.2019 12:00:00 24,5 12,8 27,7 31 17 46 25 NNW 1016,6 39 0,0
16.06.2019 11:00:00 23,2 11,9 25,7 29 16 46 25 NNW 1016,9 44 0,0
16.06.2019 10:00:00 21,9 11,3 23,6 28 15 48 26 NNW 1017,1 51 0,0
16.06.2019 09:00:00 20,0 12,2 22,3 27 15 40 22 N 1017,2 60 0,0
16.06.2019 08:00:00 18,7 12,4 18,4 10 5 29 16 N 1017,5 60 0,0
16.06.2019 07:00:00 17,0 11,7 15,6 10 5 27 15 NNW 1017,1 59 0,0
16.06.2019 06:00:00 16,3 11,9 15,7 22 12 44 24 NW 1017,0 60 0,0
16.06.2019 05:00:00 16,6 11,9 15,9 23 13 39 21 NW 1017,0 60 0,0
16.06.2019 04:00:00 16,9 11,8 16,1 18 10 36 20 NW 1017,2 60 0,0
16.06.2019 03:00:00 17,1 11,8 16,3 21 11 31 17 NW 1017,4 60 0,0
16.06.2019 02:00:00 17,7 11,3 16,5 10 5 30 16 NW 1017,7 60 0,0
16.06.2019 01:00:00 18,3 11,4 17,2 22 12 32 17 NNW 1017,9 60 0,0
16.06.2019 00:00:00 18,6 12,3 17,8 13 7 26 14 NW 1017,7 60 0,0
15.06.2019 23:00:00 19,7 12,2 17,5 8 4 26 14 NNW 1017,0 60 0,0
15.06.2019 22:00:00 20,8 12,5 20,0 11 6 25 14 NW 1016,4 60 0,0
15.06.2019 21:00:00 22,3 13,4 21,9 13 7 35 19 NW 1016,0 60 0,0
15.06.2019 20:00:00 23,8 12,7 24,2 20 11 43 23 NNW 1015,8 60 0,0
15.06.2019 19:00:00 25,6 16,7 27,1 10 5 29 16 WNW 1015,6 43 0,0
15.06.2019 18:00:00 25,8 17,4 27,7 11 6 25 13 WNW 1015,7 55 0,0
15.06.2019 17:00:00 25,3 16,7 26,9 13 7 27 15 ZW 1015,9 47 0,0
15.06.2019 16:00:00 24,5 16,2 29,9 19 10 29 15 ZW 1016,1 32 0,0
15.06.2019 15:00:00 23,6 16,4 28,5 16 9 34 19 ZZW 1016,2 30 0,0
15.06.2019 14:00:00 24,2 16,7 28,2 18 10 35 19 ZZW 1016,3 31 0,0
15.06.2019 13:00:00 23,9 16,2 27,8 15 8 29 16 Z 1016,1 31 0,0
15.06.2019 12:00:00 22,9 16,4 24,8 16 9 28 15 ZZW 1016,3 33 0,0
15.06.2019 11:00:00 22,1 16,8 23,4 15 8 24 13 ZZW 1016,5 20 0,0
15.06.2019 10:00:00 21,1 16,9 22,5 12 7 17 9 ZW 1016,2 29 0,0
15.06.2019 09:00:00 21,0 17,2 19,3 8 4 14 8 ZZO 1015,3 24 0,0
15.06.2019 08:00:00 18,7 17,4 18,2 8 4 12 7 O 1015,3 12 0,0
15.06.2019 07:00:00 18,8 16,8 18,4 6 4 13 7 ONO 1015,3 5 0,0
15.06.2019 06:00:00 19,1 16,0 18,8 6 3 14 7 ZO 1014,7 16 0,0
15.06.2019 05:00:00 18,9 15,6 17,7 6 4 15 8 OZO 1014,3 25 0,0
15.06.2019 04:00:00 18,2 15,4 17,4 8 4 21 12 ZO 1014,2 20 0,0
15.06.2019 03:00:00 19,1 16,3 18,9 13 7 33 18 ZZO 1014,1 17 0,0
15.06.2019 02:00:00 19,5 17,6 19,4 17 9 31 17 Z 1014,0 12 0,0
15.06.2019 01:00:00 21,2 17,8 20,3 14 8 24 13 ZZO 1013,3 20 0,0
15.06.2019 00:00:00 20,5 18,1 20,4 12 6 32 17 Z 1012,9 14 0,0
14.06.2019 23:00:00 21,6 18,2 20,6 14 8 30 16 Z 1011,5 14 0,0
14.06.2019 22:00:00 21,0 18,4 20,5 15 8 40 22 ZO 1010,8 12 0,0
14.06.2019 21:00:00 21,8 18,2 21,7 23 12 53 29 Z 1010,5 11 0,0
14.06.2019 20:00:00 22,5 17,8 22,8 32 17 54 29 Z 1009,3 15 0,0
14.06.2019 19:00:00 24,1 16,6 26,6 29 16 50 27 Z 1008,2 12 0,0
14.06.2019 18:00:00 30,1 13,0 35,1 7 4 34 18 WNW 1006,8 45 0,0
14.06.2019 17:00:00 31,6 9,2 30,9 31 17 59 32 OZO 1006,9 38 0,0
14.06.2019 16:00:00 30,4 8,2 28,6 29 16 47 25 OZO 1006,9 45 0,0
14.06.2019 15:00:00 30,1 12,5 31,6 18 10 26 14 ZW 1008,0 49 0,0
14.06.2019 14:00:00 29,9 13,6 33,2 10 5 25 14 W 1007,8 59 0,0
14.06.2019 13:00:00 26,8 12,4 30,9 16 8 36 19 WNW 1008,6 50 0,0
14.06.2019 12:00:00 30,7 10,6 30,8 16 9 45 25 O 1009,1 20 0,0
14.06.2019 11:00:00 29,0 11,1 28,3 15 8 28 15 NO 1009,4 19 0,0
14.06.2019 10:00:00 26,4 8,4 24,2 11 6 33 18 ONO 1010,4 60 0,0
14.06.2019 09:00:00 23,2 8,8 20,2 16 9 25 13 NO 1010,2 27 0,0
14.06.2019 08:00:00 20,2 9,4 19,0 5 3 29 15 N 1011,5 60 0,0
14.06.2019 07:00:00 19,5 8,8 15,8 23 13 31 17 N 1012,2 60 0,0
14.06.2019 06:00:00 17,0 7,9 14,3 4 2 21 11 ZZW 1011,2 60 0,0
14.06.2019 05:00:00 18,7 6,5 13,7 9 5 39 21 NW 1011,4 60 0,0
14.06.2019 04:00:00 15,2 10,0 13,1 4 2 12 7 Z 1013,0 60 0,0
14.06.2019 03:00:00 15,4 11,0 14,2 11 6 16 9 NNO 1013,7 60 0,0
14.06.2019 02:00:00 15,3 10,9 13,9 8 5 12 6 N 1014,1 60 0,0
14.06.2019 01:00:00 17,0 11,9 15,0 2 1 11 6 OZO 1014,3 60 0,0
14.06.2019 00:00:00 17,5 12,2 16,3 8 4 16 9 ZO 1014,7 59 0,0
13.06.2019 23:00:00 17,3 12,8 16,5 3 1 14 8 O 1014,5 60 0,0
13.06.2019 22:00:00 18,2 12,4 17,0 4 2 8 5 NW 1014,6 59 0,0
13.06.2019 21:00:00 19,4 12,4 18,9 2 1 13 7 N 1014,3 60 0,0
13.06.2019 20:00:00 20,3 11,8 20,8 11 6 23 12 Z 1014,4 60 0,0
13.06.2019 19:00:00 21,2 10,1 22,6 14 7 26 14 Z 1014,4 60 0,0
13.06.2019 18:00:00 23,6 8,8 26,9 16 9 24 13 ZZW 1014,2 60 0,0
13.06.2019 17:00:00 23,9 9,5 28,0 12 7 23 13 Z 1014,4 59 0,0
13.06.2019 16:00:00 25,3 10,3 29,6 17 9 28 15 ZZW 1014,8 60 0,0
13.06.2019 15:00:00 25,5 10,9 32,9 16 9 26 14 ZW 1014,9 60 0,0
13.06.2019 14:00:00 24,8 9,5 32,0 15 8 23 12 ZW 1015,0 60 0,0
13.06.2019 13:00:00 24,3 9,1 31,0 8 4 19 11 ZZW 1015,4 60 0,0
13.06.2019 12:00:00 23,0 11,4 29,4 13 7 21 11 ZW 1015,5 60 0,0
13.06.2019 11:00:00 22,1 11,5 27,1 4 2 10 5 NNW 1016,0 60 0,0
13.06.2019 10:00:00 19,5 10,2 23,6 2 1 7 4 NNO 1016,0 56 0,0
13.06.2019 09:00:00 16,7 11,2 18,6 4 2 11 6 NNW 1016,2 54 0,0
13.06.2019 08:00:00 13,5 10,5 12,6 5 3 9 5 N 1016,1 45 0,0
13.06.2019 07:00:00 10,9 9,3 7,0 5 3 9 5 O 1015,5 33 0,0
13.06.2019 06:00:00 9,0 7,8 6,8 4 2 9 5 O 1015,3 24 0,0
13.06.2019 05:00:00 9,2 8,0 6,7 4 2 9 5 NO 1015,2 33 0,2
13.06.2019 04:00:00 9,4 8,0 7,8 7 4 9 5 NO 1015,6 40 0,0
13.06.2019 03:00:00 10,1 8,5 8,4 5 3 7 4 NNO 1016,0 46 0,0
13.06.2019 02:00:00 10,4 8,5 8,7 0 0 7 4 N 1016,3 51 0,0
13.06.2019 01:00:00 11,0 8,9 9,4 3 2 6 3 NNO 1016,2 49 0,0
13.06.2019 00:00:00 12,1 9,3 9,7 0 0 3 1 N 1016,3 55 0,0
12.06.2019 23:00:00 15,0 9,4 13,6 3 1 8 4 ZZW 1016,0 60 0,0
12.06.2019 22:00:00 16,0 8,7 14,5 6 3 14 8 ZW 1015,2 60 0,0
12.06.2019 21:00:00 18,1 8,4 17,3 10 6 21 11 WZW 1014,5 60 0,0
12.06.2019 20:00:00 20,5 7,5 23,7 10 5 24 13 WZW 1013,8 60 0,0
12.06.2019 19:00:00 20,7 9,6 25,5 15 8 27 14 ZZW 1013,5 60 0,0
12.06.2019 18:00:00 21,4 9,9 27,6 19 10 28 15 ZZW 1013,7 60 0,0
12.06.2019 17:00:00 22,0 7,4 28,3 17 9 31 17 ZW 1013,8 57 0,0
12.06.2019 16:00:00 22,4 8,9 28,6 17 9 32 17 WZW 1013,8 20 0,0
12.06.2019 15:00:00 22,3 7,3 29,1 11 6 27 15 WZW 1013,7 60 0,0
12.06.2019 14:00:00 21,7 8,9 28,3 11 6 26 14 NW 1013,7 60 0,0
12.06.2019 13:00:00 20,6 7,9 26,6 11 6 24 13 WNW 1013,8 60 0,0
12.06.2019 12:00:00 19,8 9,7 23,9 12 7 27 15 WNW 1013,7 60 0,0
12.06.2019 11:00:00 18,2 9,0 21,8 18 10 29 16 NW 1013,7 59 0,0
12.06.2019 10:00:00 17,0 10,8 19,9 14 8 26 14 NW 1013,8 27 0,0
12.06.2019 09:00:00 15,2 12,5 14,8 10 5 17 9 NW 1013,5 18 0,0
12.06.2019 08:00:00 12,9 12,0 12,1 4 2 10 5 W 1013,3 11 0,0
12.06.2019 07:00:00 12,0 11,4 8,7 0 0 5 3 N 1012,9 7 0,0
12.06.2019 06:00:00 11,6 11,0 8,1 4 2 8 4 WZW 1012,5 6 0,0
12.06.2019 05:00:00 11,1 10,3 9,7 0 0 8 4 N 1012,2 0,2 0,0
12.06.2019 04:00:00 12,7 11,9 11,5 0 0 7 4 N 1012,5 3,0 0,0
12.06.2019 03:00:00 13,2 12,4 12,3 5 3 10 5 WZW 1012,9 6 0,0
12.06.2019 02:00:00 13,5 12,7 13,0 7 4 11 6 N 1011,9 13 0,2
12.06.2019 01:00:00 13,7 12,9 13,3 7 4 10 6 N 1012,4 6 0,8
12.06.2019 00:00:00 13,8 12,9 13,2 4 2 7 4 ZZW 1013,1 8 0,4
11.06.2019 23:00:00 13,6 12,5 13,0 0 0 6 3 N 1012,6 13 0,0
11.06.2019 22:00:00 13,4 12,1 13,0 3 2 10 5 WNW 1012,6 23 0,0
11.06.2019 21:00:00 13,9 12,6 13,4 3 2 8 4 N 1011,9 19 0,0
11.06.2019 20:00:00 13,8 12,5 13,5 5 3 9 5 NNW 1012,3 13 0,8
11.06.2019 19:00:00 13,9 12,6 13,3 5 3 12 6 W 1012,7 4,1 2,3
11.06.2019 18:00:00 13,9 11,9 13,3 5 3 16 9 NNW 1012,0 9 3,0
11.06.2019 17:00:00 14,4 12,1 13,6 6 4 16 9 WNW 1012,0 9 0,8
11.06.2019 16:00:00 14,8 12,1 14,1 8 5 17 9 NW 1012,2 17 0,8
11.06.2019 15:00:00 14,8 12,5 14,1 10 6 23 13 W 1012,6 13 0,6
11.06.2019 14:00:00 15,6 12,9 16,3 8 4 16 9 NW 1012,1 39 0,2
11.06.2019 13:00:00 16,0 13,5 16,1 7 4 14 8 WZW 1011,8 33 0,0
11.06.2019 12:00:00 15,8 12,4 14,7 8 4 16 8 WNW 1011,3 41 0,0
11.06.2019 11:00:00 14,5 12,2 13,9 11 6 18 10 NNW 1011,0 18 0,2
11.06.2019 10:00:00 14,2 11,7 13,0 14 7 17 9 N 1010,5 15 0,8
11.06.2019 09:00:00 14,6 10,4 13,0 10 5 16 9 N 1010,5 34 0,2
11.06.2019 08:00:00 15,1 9,0 14,6 7 4 13 7 N 1010,6 60 0,0
11.06.2019 07:00:00 14,7 8,9 13,8 8 4 18 10 NNW 1010,1 60 0,0
11.06.2019 06:00:00 14,6 8,5 13,9 7 4 14 8 WNW 1010,0 60 0,0
11.06.2019 05:00:00 15,1 8,3 14,4 6 3 16 8 NW 1010,1 60 0,0
11.06.2019 04:00:00 15,5 7,8 14,8 8 4 21 11 NW 1010,4 60 0,0
11.06.2019 03:00:00 15,9 7,4 14,9 12 6 29 16 NW 1010,7 60 0,0
11.06.2019 02:00:00 16,1 7,0 15,2 13 7 25 14 NNW 1010,9 60 0,0
11.06.2019 01:00:00 16,1 7,6 14,7 12 7 30 16 NW 1011,2 60 0,0
11.06.2019 00:00:00 16,5 9,9 15,9 21 11 43 23 NW 1011,1 60 0,0
10.06.2019 23:00:00 17,6 11,4 17,2 27 15 48 26 NNW 1010,5 60 0,0
10.06.2019 22:00:00 19,7 11,2 19,1 17 9 35 19 NW 1010,2 60 0,0
10.06.2019 21:00:00 22,0 10,8 21,6 17 9 33 18 NW 1009,3 60 0,0
10.06.2019 20:00:00 24,2 10,8 26,4 19 11 38 20 NW 1009,2 39 0,0
10.06.2019 19:00:00 25,3 10,7 26,3 19 10 37 20 NW 1008,1 46 0,0
10.06.2019 18:00:00 24,2 11,8 26,0 21 11 41 22 NW 1008,7 50 0,0
10.06.2019 17:00:00 23,9 11,9 26,0 21 11 52 28 NW 1008,9 49 0,0

tt = temperatuur
td = dauwpunt
tt 5cm = temperatuur 5cm
ff = windsnelheid
fx = windstoten
dd = windrichting
ppp = luchtdruk
vv = zicht
rr = neerslag

Weerstations in de omgeving